[TLELIST] Archives

 

[TLELIST] Current TLEs

May 4th 2023 PDT

HST 1 20580U 90037B 23123.34271163 .00004200 00000-0 22192-3 0 9997 2 20580 28.4688 206.3173 0002141 246.7432 171.1705 15.12926147614664 ISS (ZARYA) 1 25544U 98067A 23124.43395057 .00104987 00000-0 18268-2 0 9994 2 25544 51.6391 185.3752 0005893 304.8351 171.2743 15.49929632395009 CXO 1 25867U 99040B 23125.65058234 .00000907 00000-0 00000-0 0 9992 2 25867 38.0106 202.2774 9042564 257.9517 359.9085 0.37818091 13019 ...Continue Reading

[TLELIST] Current TLEs

May 3rd 2023 PDT

HST 1 20580U 90037B 23122.63274468 .00004455 00000-0 23606-3 0 9992 2 20580 28.4689 211.0389 0002168 238.4936 264.8789 15.12920880614551 ISS (ZARYA) 1 25544U 98067A 23123.33857377 .00013457 00000-0 24432-3 0 9992 2 25544 51.6399 190.8002 0005878 298.5203 181.7828 15.49877874394834 CXO 1 25867U 99040B 23125.65058234 .00000907 00000-0 00000-0 0 9992 2 25867 38.0106 202.2774 9042564 257.9517 359.9085 0.37818091 13019 ...Continue Reading

[TLELIST] Current TLEs

May 2nd 2023 PDT

HST 1 20580U 90037B 23122.31958569 .00004572 00000-0 24256-3 0 9990 2 20580 28.4689 213.1214 0002189 234.6166 359.7414 15.12918502614778 ISS (ZARYA) 1 25544U 98067A 23122.36645824 .00013077 00000-0 23789-3 0 9998 2 25544 51.6401 195.6185 0005796 295.8163 156.9694 15.49850207394686 CXO 1 25867U 99040B 23123.00826644 .00000948 00000-0 00000-0 0 9992 2 25867 38.0408 202.5862 9044700 257.7155 0.1183 0.37818581 13013 ...Continue Reading

[TLELIST] Current TLEs

May 1st 2023 PDT

HST 1 20580U 90037B 23120.72171704 .00004482 00000-0 23765-3 0 9995 2 20580 28.4688 223.7479 0002275 215.6216 298.6715 15.12904804614537 ISS (ZARYA) 1 25544U 98067A 23121.33880438 .00017192 00000-0 31032-3 0 9998 2 25544 51.6392 200.7111 0005590 289.8174 185.4801 15.49826932394527 CXO 1 25867U 99040B 23123.00826644 .00000948 00000-0 00000-0 0 9992 2 25867 38.0408 202.5862 9044700 257.7155 0.1183 0.37818581 13013 ...Continue Reading

[TLELIST] Current TLEs

April 30th 2023 PDT

HST 1 20580U 90037B 23119.66540420 .00004655 00000-0 24729-3 0 9994 2 20580 28.4687 230.7725 0002340 203.1084 306.6001 15.12895651614375 ISS (ZARYA) 1 25544U 98067A 23120.30550722 -.00137492 00000-0 -24643-2 0 9991 2 25544 51.6388 205.8267 0005442 283.2281 183.1709 15.49744270394361 CXO 1 25867U 99040B 23120.36200414 .00000947 00000-0 00000-0 0 9998 2 25867 38.0806 202.9706 9046409 257.4040 359.8505 0.37817006 12993 ...Continue Reading

[TLELIST] Current TLEs

April 29th 2023 PDT

HST 1 20580U 90037B 23118.60218363 .00004850 00000-0 25819-3 0 9993 2 20580 28.4689 237.8428 0002413 191.0539 276.4080 15.12885959613949 ISS (ZARYA) 1 25544U 98067A 23119.33915411 .00020493 00000-0 36053-3 0 9991 2 25544 51.6391 210.6131 0005433 254.9361 214.7667 15.50427801394211 CXO 1 25867U 99040B 23120.36200414 .00000947 00000-0 00000-0 0 9998 2 25867 38.0806 202.9706 9046409 257.4040 359.8505 0.37817006 12993 ...Continue Reading

[TLELIST] Current TLEs

April 28th 2023 PDT

HST 1 20580U 90037B 23117.75158163 .00005041 00000-0 26879-3 0 9999 2 20580 28.4689 243.4993 0002458 181.6480 323.9042 15.12877972614086 ISS (ZARYA) 1 25544U 98067A 23118.43383685 .00021920 00000-0 38548-3 0 9990 2 25544 51.6392 215.1006 0005110 252.9812 200.3836 15.50394765394079 CXO 1 25867U 99040B 23120.36200414 .00000947 00000-0 00000-0 0 9998 2 25867 38.0806 202.9706 9046409 257.4040 359.8505 0.37817006 12993 ...Continue Reading

[TLELIST] Current TLEs

April 28th 2023 PDT

HST 1 20580U 90037B 23117.75158163 .00005041 00000-0 26879-3 0 9999 2 20580 28.4689 243.4993 0002458 181.6480 323.9042 15.12877972614086 ISS (ZARYA) 1 25544U 98067A 23118.43383685 .00021920 00000-0 38548-3 0 9990 2 25544 51.6392 215.1006 0005110 252.9812 200.3836 15.50394765394079 CXO 1 25867U 99040B 23120.36200414 .00000947 00000-0 00000-0 0 9998 2 25867 38.0806 202.9706 9046409 257.4040 359.8505 0.37817006 12993 ...Continue Reading

[TLELIST] Current TLEs

April 27th 2023 PDT

HST 1 20580U 90037B 23116.67334358 .00004643 00000-0 24681-3 0 9997 2 20580 28.4689 250.6689 0002505 170.2472 211.1767 15.12867537613656 ISS (ZARYA) 1 25544U 98067A 23117.29580829 .00021162 00000-0 37309-3 0 9994 2 25544 51.6386 220.7438 0005539 246.6442 330.8231 15.50344675393899 CXO 1 25867U 99040B 23117.71740322 .00000898 00000-0 00000-0 0 9995 2 25867 38.1165 203.3285 9046510 257.1111 359.8445 0.37811087 12994 ...Continue Reading

[TLELIST] Current TLEs

April 26th 2023 PDT

HST 1 20580U 90037B 23116.10556507 .00005323 00000-0 28452-3 0 9993 2 20580 28.4689 254.4443 0002546 164.0585 358.9163 15.12862765613835 ISS (ZARYA) 1 25544U 98067A 23115.53220313 .00027629 00000-0 48547-3 0 9998 2 25544 51.6404 229.4846 0005628 240.7961 207.2997 15.50274552393622 CXO 1 25867U 99040B 23117.71740322 .00000898 00000-0 00000-0 0 9995 2 25867 38.1165 203.3285 9046510 257.1111 359.8445 0.37811087 12994 ...Continue Reading
  • This mailing list is a public mailing list - anyone may join or leave, at any time.
  • This mailing list is announce-only.

International Space Station (ISS) / Hubble Space Telescope (HST) / Chandra X-Ray Observatory Orbital Data via EMAIL

Privacy Policy:

Private list